Location: Treviso
(45.6669°N, 12.2430°E)
Time: 15:17:28
(UTC+01:00)

ISS - Visible Passes

Search period start: 17 February 2019 00:00
Search period end: 27 February 2019 00:00
Orbit: 403 x 411 km, 51.6° (Epoch: 17 February)

Date Brightness Start Highest point End Pass type
(mag) Time Alt. Az. Time Alt. Az. Time Alt. Az.
24 Feb -1.4 05:42:11 10° S 05:44:43 21° SE 05:47:16 10° E visible
25 Feb -0.9 04:52:04 10° SSE 04:53:26 12° SE 04:54:49 10° ESE visible
25 Feb -3.7 06:26:12 10° SW 06:29:28 78° SSE 06:32:45 10° ENE visible
26 Feb -2.9 05:35:45 17° SSW 05:38:00 45° SE 05:41:10 10° ENE visible
